Location: Newark
(30.0333°N, 31.2167°E)
Time: 22:08:59
(UTC+00:00)

Tiros 1 - Pass Details

Date: 26 January 2020
Orbit: 631 x 664 km, 48.4° (Epoch: 19 February)

Event Time Altitude Azimuth Distance (km) Brightness Sun altitude
Rises 09:41:43 0° 243° (WSW) 2,914 10.7 40.8°
Reaches altitude 10° 09:44:06 10° 249° (WSW) 2,012 9.9 40.8°
Maximum altitude 09:48:33 46° 323° (NW) 853 7.9 41.0°
Drops below altitude 10° 09:53:05 10° 37° (NE) 2,039 9.5 41.0°
Sets 09:55:31 0° 43° (NE) 2,956 10.2 41.1°
